WZZ2MK LGMK-LGAV

Flight info

Callsign WZZ2MK
Flight time 0h 38m
Altitude 12000
Route VARIX
Aircraft A21N/M-SDE2E3FGHIJ1RWXY/LB1

Departure

Time 2026-05-08 18:10
Airport Mykonos Island National Airport (LGMK)

Arrival

Time 2026-05-08 18:48
Airport Athens Eleftherios Venizelos International Airport (LGAV)
Time Latitude Longitude Altitude Speed Heading
2026-05-08 17:51 37.43508 25.34652 412 ft 0 kts 252°
2026-05-08 18:02 37.43509 25.34653 412 ft 2 kts 252°
2026-05-08 18:02 37.43512 25.34668 408 ft 3 kts 262°
2026-05-08 18:02 37.43509 25.34699 413 ft 4 kts 302°
2026-05-08 18:02 37.43497 25.34714 413 ft 4 kts 338°
2026-05-08 18:03 37.43493 25.34716 413 ft 0 kts 341°
2026-05-08 18:05 37.43510 25.34709 413 ft 4 kts 341°
2026-05-08 18:06 37.43545 25.34694 413 ft 6 kts 341°
2026-05-08 18:06 37.43593 25.34675 413 ft 8 kts 352°
2026-05-08 18:06 37.43654 25.34703 413 ft 11 kts 30°
2026-05-08 18:06 37.43737 25.34722 416 ft 14 kts 343°
2026-05-08 18:07 37.43831 25.34681 410 ft 16 kts 341°
2026-05-08 18:07 37.43939 25.34634 412 ft 17 kts 341°
2026-05-08 18:07 37.44055 25.34584 414 ft 18 kts 341°
2026-05-08 18:07 37.44174 25.34531 412 ft 17 kts 340°
2026-05-08 18:08 37.44254 25.34477 410 ft 11 kts 313°
2026-05-08 18:08 37.44298 25.34457 409 ft 4 kts 39°
2026-05-08 18:08 37.44287 25.34482 405 ft 4 kts 172°
2026-05-08 18:08 37.44278 25.34484 410 ft 0 kts 162°
2026-05-08 18:09 37.44181 25.34524 412 ft 48 kts 161°
2026-05-08 18:09 37.43600 25.34784 414 ft 128 kts 160°
2026-05-08 18:10 37.42618 25.35227 772 ft 156 kts 160°
2026-05-08 18:10 37.41578 25.35673 1523 ft 159 kts 163°
2026-05-08 18:10 37.40489 25.36146 2126 ft 173 kts 164°
2026-05-08 18:10 37.39296 25.36672 2690 ft 190 kts 165°
2026-05-08 18:11 37.38011 25.37237 3341 ft 201 kts 165°
2026-05-08 18:11 37.36670 25.37830 4079 ft 207 kts 165°
2026-05-08 18:11 37.35257 25.38150 4803 ft 208 kts 184°
2026-05-08 18:11 37.33852 25.37786 5496 ft 207 kts 211°
2026-05-08 18:12 37.32842 25.36555 6236 ft 204 kts 243°
2026-05-08 18:12 37.32496 25.34787 6673 ft 223 kts 272°
2026-05-08 18:12 37.32914 25.32800 6953 ft 252 kts 291°
2026-05-08 18:12 37.33922 25.30852 7251 ft 283 kts 309°
2026-05-08 18:13 37.35381 25.29024 7552 ft 309 kts 313°
2026-05-08 18:13 37.36999 25.27080 7847 ft 333 kts 313°
2026-05-08 18:13 37.38725 25.24998 8111 ft 354 kts 313°
2026-05-08 18:13 37.40532 25.22802 8630 ft 366 kts 313°
2026-05-08 18:14 37.42367 25.20560 9417 ft 369 kts 313°
2026-05-08 18:14 37.44206 25.18298 10222 ft 370 kts 312°
2026-05-08 18:14 37.46041 25.16026 10724 ft 371 kts 312°
2026-05-08 18:14 37.47824 25.13664 11126 ft 373 kts 308°
2026-05-08 18:15 37.49463 25.11117 11509 ft 375 kts 306°
2026-05-08 18:15 37.51071 25.08511 11881 ft 378 kts 305°
2026-05-08 18:15 37.52678 25.05883 12082 ft 379 kts 305°
2026-05-08 18:15 37.54265 25.03284 12112 ft 379 kts 305°
2026-05-08 18:16 37.55893 25.00613 12112 ft 379 kts 305°
2026-05-08 18:16 37.57507 24.97983 12098 ft 380 kts 305°
2026-05-08 18:16 37.59134 24.95357 12090 ft 379 kts 305°
2026-05-08 18:16 37.60738 24.92772 12090 ft 379 kts 305°
2026-05-08 18:17 37.62363 24.90152 12086 ft 379 kts 305°
2026-05-08 18:17 37.63988 24.87532 12088 ft 379 kts 305°
2026-05-08 18:17 37.65615 24.84911 12087 ft 379 kts 305°
2026-05-08 18:17 37.67242 24.82289 12087 ft 379 kts 305°
2026-05-08 18:18 37.68869 24.79665 12090 ft 379 kts 305°
2026-05-08 18:18 37.70493 24.77044 12091 ft 380 kts 305°
2026-05-08 18:18 37.72120 24.74414 12089 ft 380 kts 305°
2026-05-08 18:18 37.73746 24.71786 11994 ft 377 kts 305°
2026-05-08 18:19 37.75317 24.69252 11779 ft 357 kts 305°
2026-05-08 18:19 37.76818 24.66843 11528 ft 341 kts 305°
2026-05-08 18:19 37.78255 24.64542 11284 ft 327 kts 305°
2026-05-08 18:19 37.79637 24.62340 11088 ft 312 kts 305°
2026-05-08 18:20 37.80949 24.60259 11057 ft 293 kts 305°
2026-05-08 18:20 37.82181 24.58311 11043 ft 274 kts 305°
2026-05-08 18:20 37.83336 24.56493 11052 ft 256 kts 305°
2026-05-08 18:20 37.84416 24.54802 11051 ft 239 kts 305°
2026-05-08 18:21 37.85456 24.53182 11065 ft 236 kts 305°
2026-05-08 18:21 37.86493 24.51570 11067 ft 235 kts 305°
2026-05-08 18:21 37.87513 24.49990 10768 ft 231 kts 305°
2026-05-08 18:21 37.88526 24.48418 10385 ft 230 kts 305°
2026-05-08 18:22 37.89535 24.46843 10017 ft 230 kts 305°
2026-05-08 18:22 37.90542 24.45272 9630 ft 229 kts 305°
2026-05-08 18:22 37.91545 24.43712 9222 ft 228 kts 305°
2026-05-08 18:22 37.92545 24.42159 8829 ft 227 kts 305°
2026-05-08 18:23 37.93546 24.40610 8424 ft 227 kts 305°
2026-05-08 18:23 37.94543 24.39068 8040 ft 226 kts 305°
2026-05-08 18:23 37.95544 24.37532 7652 ft 226 kts 305°
2026-05-08 18:23 37.96551 24.36012 7280 ft 225 kts 305°
2026-05-08 18:24 37.97567 24.34483 7031 ft 228 kts 305°
2026-05-08 18:24 37.98589 24.32944 6968 ft 227 kts 305°
2026-05-08 18:24 37.99598 24.31429 6645 ft 224 kts 305°
2026-05-08 18:24 38.00606 24.29912 6243 ft 226 kts 305°
2026-05-08 18:25 38.01623 24.28382 5843 ft 228 kts 305°
2026-05-08 18:25 38.02651 24.26843 5475 ft 229 kts 305°
2026-05-08 18:25 38.03688 24.25312 5136 ft 229 kts 305°
2026-05-08 18:25 38.04731 24.23782 4767 ft 230 kts 305°
2026-05-08 18:26 38.05768 24.22270 4407 ft 230 kts 305°
2026-05-08 18:26 38.06825 24.20741 4071 ft 230 kts 305°
2026-05-08 18:26 38.07886 24.19212 3970 ft 231 kts 305°
2026-05-08 18:26 38.08952 24.17681 3967 ft 231 kts 305°
2026-05-08 18:27 38.09759 24.15982 3965 ft 221 kts 279°
2026-05-08 18:27 38.09857 24.15342 3972 ft 218 kts 270°
2026-05-08 18:27 38.09531 24.12226 3992 ft 216 kts 255°
2026-05-08 18:27 38.09219 24.10355 3986 ft 210 kts 255°
2026-05-08 18:28 38.09014 24.09172 3940 ft 197 kts 249°
2026-05-08 18:28 38.08378 24.07712 3723 ft 186 kts 230°
2026-05-08 18:28 38.07468 24.06549 3482 ft 186 kts 221°
2026-05-08 18:28 38.06446 24.05533 3227 ft 186 kts 217°
2026-05-08 18:29 38.05417 24.04549 2966 ft 184 kts 217°
2026-05-08 18:29 38.04398 24.03574 2725 ft 182 kts 217°
2026-05-08 18:29 38.03389 24.02608 2470 ft 181 kts 217°
2026-05-08 18:29 38.02420 24.01681 2267 ft 169 kts 216°
2026-05-08 18:30 38.01516 24.00818 2041 ft 157 kts 216°
2026-05-08 18:30 38.00668 24.00007 1800 ft 149 kts 216°
2026-05-08 18:30 37.99851 23.99226 1606 ft 147 kts 216°
2026-05-08 18:30 37.99070 23.98480 1421 ft 131 kts 216°
2026-05-08 18:31 37.98357 23.97798 1237 ft 128 kts 217°
2026-05-08 18:31 37.97638 23.97114 1054 ft 131 kts 215°
2026-05-08 18:31 37.96903 23.96410 925 ft 133 kts 217°
2026-05-08 18:31 37.96167 23.95715 730 ft 132 kts 218°
2026-05-08 18:32 37.95450 23.95026 560 ft 131 kts 217°
2026-05-08 18:32 37.94690 23.94303 788 ft 147 kts 219°
2026-05-08 18:32 37.93862 23.93517 1666 ft 153 kts 214°
2026-05-08 18:32 37.92968 23.92666 2143 ft 171 kts 217°
2026-05-08 18:33 37.91970 23.91705 2745 ft 188 kts 218°
2026-05-08 18:33 37.90896 23.90677 3442 ft 201 kts 218°
2026-05-08 18:33 37.89755 23.89591 3914 ft 208 kts 218°
2026-05-08 18:33 37.88587 23.88466 4316 ft 215 kts 218°
2026-05-08 18:34 37.87369 23.87347 4704 ft 218 kts 209°
2026-05-08 18:34 37.85864 23.86890 4977 ft 236 kts 182°
2026-05-08 18:34 37.84241 23.87413 5031 ft 248 kts 155°
2026-05-08 18:34 37.82938 23.88875 5031 ft 257 kts 128°
2026-05-08 18:35 37.82215 23.91005 5025 ft 264 kts 108°
2026-05-08 18:35 37.81801 23.93234 5028 ft 263 kts 105°
2026-05-08 18:35 37.81427 23.95483 5010 ft 261 kts 105°
2026-05-08 18:35 37.81094 23.97749 5002 ft 264 kts 96°
2026-05-08 18:36 37.81375 24.00052 5003 ft 269 kts 71°
2026-05-08 18:36 37.82118 24.02229 5027 ft 271 kts 65°
2026-05-08 18:36 37.82922 24.04388 5026 ft 271 kts 65°
2026-05-08 18:36 37.83729 24.06535 5003 ft 270 kts 65°
2026-05-08 18:37 37.84539 24.08681 5006 ft 271 kts 65°
2026-05-08 18:37 37.85358 24.10836 5020 ft 272 kts 65°
2026-05-08 18:37 37.86180 24.12995 5008 ft 272 kts 65°
2026-05-08 18:37 37.87003 24.15149 5014 ft 272 kts 65°
2026-05-08 18:38 37.88070 24.17083 5004 ft 263 kts 40°
2026-05-08 18:38 37.89606 24.18225 5011 ft 255 kts 18°
2026-05-08 18:38 37.91280 24.18982 5029 ft 256 kts 15°
2026-05-08 18:38 37.92969 24.19712 5021 ft 256 kts 15°
2026-05-08 18:39 37.94658 24.20440 5013 ft 256 kts 15°
2026-05-08 18:39 37.96340 24.21165 5016 ft 255 kts 15°
2026-05-08 18:39 37.98027 24.21880 5026 ft 255 kts 15°
2026-05-08 18:39 37.99707 24.22592 5032 ft 254 kts 15°
2026-05-08 18:40 38.01383 24.23308 5023 ft 254 kts 15°
2026-05-08 18:40 38.03077 24.23756 4996 ft 239 kts 352°
2026-05-08 18:40 38.04619 24.23374 4983 ft 221 kts 336°
2026-05-08 18:40 38.06076 24.22778 4994 ft 220 kts 335°
2026-05-08 18:41 38.07523 24.22161 4993 ft 220 kts 335°
2026-05-08 18:41 38.08975 24.21537 4999 ft 220 kts 335°
2026-05-08 18:41 38.10283 24.20650 4966 ft 207 kts 309°
2026-05-08 18:41 38.10999 24.19180 4565 ft 193 kts 277°
2026-05-08 18:42 38.10988 24.17518 4162 ft 190 kts 257°
2026-05-08 18:42 38.10747 24.15874 4011 ft 189 kts 255°
2026-05-08 18:42 38.10494 24.14242 3990 ft 189 kts 255°
2026-05-08 18:42 38.10243 24.12652 4005 ft 173 kts 255°
2026-05-08 18:43 38.10002 24.11165 4031 ft 173 kts 255°
2026-05-08 18:43 38.09756 24.09668 4012 ft 173 kts 252°
2026-05-08 18:43 38.09157 24.08389 3843 ft 168 kts 227°
2026-05-08 18:43 38.08304 24.07384 3643 ft 167 kts 221°
2026-05-08 18:44 38.07403 24.06467 3445 ft 167 kts 219°
2026-05-08 18:44 38.06478 24.05568 3223 ft 167 kts 218°
2026-05-08 18:44 38.05586 24.04711 2997 ft 159 kts 218°
2026-05-08 18:44 38.04727 24.03888 2778 ft 151 kts 217°
2026-05-08 18:45 38.03909 24.03106 2566 ft 143 kts 217°
2026-05-08 18:45 38.03130 24.02360 2363 ft 138 kts 217°
2026-05-08 18:45 38.02351 24.01616 2180 ft 141 kts 217°
2026-05-08 18:45 38.01569 24.00868 1999 ft 140 kts 216°
2026-05-08 18:46 38.00787 24.00120 1818 ft 142 kts 216°
2026-05-08 18:46 37.99994 23.99363 1632 ft 144 kts 216°
2026-05-08 18:46 37.99219 23.98622 1458 ft 140 kts 216°
2026-05-08 18:46 37.98445 23.97884 1274 ft 137 kts 217°
2026-05-08 18:47 37.97673 23.97147 1078 ft 140 kts 216°
2026-05-08 18:47 37.96896 23.96404 898 ft 138 kts 219°
2026-05-08 18:47 37.96115 23.95660 692 ft 139 kts 218°
2026-05-08 18:47 37.95341 23.94928 511 ft 139 kts 218°
2026-05-08 18:48 37.94569 23.94188 338 ft 140 kts 218°
2026-05-08 18:48 37.93845 23.93502 298 ft 110 kts 217°
2026-05-08 18:48 37.93395 23.93076 296 ft 52 kts 217°
2026-05-08 18:48 37.93151 23.92873 294 ft 32 kts 205°
2026-05-08 18:49 37.92992 23.92824 300 ft 18 kts 184°
2026-05-08 18:49 37.92932 23.92892 304 ft 13 kts 71°
2026-05-08 18:49 37.92998 23.92978 304 ft 15 kts 39°
2026-05-08 18:49 37.93083 23.93061 306 ft 16 kts 37°
2026-05-08 18:50 37.93178 23.93151 305 ft 17 kts 36°
2026-05-08 18:50 37.93247 23.93215 305 ft 11 kts 38°
2026-05-08 18:50 37.93314 23.93279 305 ft 13 kts 37°
2026-05-08 18:50 37.93392 23.93353 306 ft 15 kts 37°
2026-05-08 18:51 37.93425 23.93443 307 ft 13 kts 113°
2026-05-08 18:51 37.93369 23.93544 306 ft 15 kts 126°
2026-05-08 18:51 37.93302 23.93657 306 ft 17 kts 127°
2026-05-08 18:51 37.93227 23.93783 306 ft 19 kts 127°
2026-05-08 18:52 37.93145 23.93921 308 ft 20 kts 127°
2026-05-08 18:52 37.93094 23.94021 308 ft 11 kts 91°
2026-05-08 18:52 37.93146 23.94104 307 ft 14 kts 36°
2026-05-08 18:52 37.93227 23.94180 309 ft 15 kts 36°
2026-05-08 18:53 37.93287 23.94258 308 ft 11 kts 85°
2026-05-08 18:53 37.93249 23.94346 306 ft 12 kts 125°
2026-05-08 18:53 37.93210 23.94413 309 ft 8 kts 132°
2026-05-08 18:53 37.93176 23.94399 308 ft 5 kts 212°
2026-05-08 18:54 37.93153 23.94378 309 ft 4 kts 217°
2026-05-08 18:54 37.93144 23.94370 306 ft 0 kts 217°
2026-05-08 18:54 37.93140 23.94366 306 ft 1 kts 217°
2026-05-08 18:54 37.93140 23.94365 306 ft 0 kts 217°